[Date Prev][Date Next][Thread Prev][Thread Next] - [Date Index][Thread Index][Author Index]

Tracking Tips for ISS




Hi All:
The Zarya and Zvezda are still scheduled for docking on Tuesday July 25.
I have enclosed some mir and iss data from thursday july 20.
This data shows the two ships 21 minutes apart.  I would assume
they are a bit closer today than the keps say.
If you are planning on trying to see Iss this weekend evenings, make
sure
you check for favorit web for keps less than 24 hours old.
By monday the ships should be less than a minute apart.
Miles


MIR                     
1 16609U 86017A   00202.42300573  .00045866  00000-0  38630-3 0  8577
2 16609  51.6503  90.5476 0012938 180.5616 179.5373 15.69256332824343
KVANT 1                 
1 17845U 87030A   00202.04093917  .00035949  00000-0  30479-3 0  1864
2 17845  51.6492  92.4946 0013080 178.9852 181.2600 15.69207790758396
KVANT 2                 
1 20335U 89093A   00202.04095727  .00036270  00000-0  30746-3 0   105
2 20335  51.6489  92.4939 0013064 179.0735 181.2743 15.69208093607406
KRISTALL                
1 20635U 90048A   00202.04095727  .00036270  00000-0  30746-3 0  7972
2 20635  51.6489  92.4939 0013064 179.0735 181.2743 15.69208093578237
SPEKTR                  
1 23579U 95024A   00202.04095727  .00036270  00000-0  30746-3 0  7601
2 23579  51.6489  92.4939 0013064 179.0735 181.2743 15.69208093295716
PRIRODA                 
1 23848U 96023A   00202.04095727  .00036270  00000-0  30746-3 0  4416
2 23848  51.6489  92.4939 0013064 179.0735 181.2743 15.69208093242807
ISS (ZARYA)             
1 25544U 98067A   00202.48581079  .00041500  00000-0  39682-3 0  8547
2 25544  51.5826 329.9505 0006374 153.5323 322.3927 15.66258700 95152
PROGRESS M1-2           
1 26301U 00021A   00202.04095727  .00036270  00000-0  30746-3 0   940
2 26301  51.6489  92.4939 0013064 179.0735 181.2743 15.69208093 13372
ISS (ZVEZDA)            
1 26400U 00037A   00202.43458971  .00127864  16357-4  59685-3 0   358
2 26400  51.5784 330.6079 0044063  98.7449 261.8575 15.81598449  1313
----
Via the sarex mailing list at AMSAT.ORG courtesy of AMSAT-NA.
To unsubscribe, send "unsubscribe sarex" to Majordomo@amsat.org



AMSAT Top AMSAT Home